Location: Starry Hill Observatory
(46.8582°N, 122.3590°W)
Time: 05:13:36
(UTC-08:00)

ISS - Visible Passes

Search period start: 21 January 2017 00:00
Search period end: 31 January 2017 00:00
Orbit: 399 x 410 km, 51.6° (Epoch: 21 January)

Date Brightness Start Highest point End Pass type
(mag) Time Alt. Az. Time Alt. Az. Time Alt. Az.
27 Jan -0.9 18:57:55 10° S 18:58:42 14° S 18:58:42 14° S visible
28 Jan -0.6 19:40:46 10° SW 19:41:36 16° SW 19:41:36 16° SW visible
29 Jan -2.5 18:48:44 10° SSW 18:51:43 35° SE 18:51:43 35° SE visible
30 Jan -1.6 17:57:01 10° S 17:59:34 21° SE 18:01:45 12° E visible
30 Jan -1.6 19:32:29 10° WSW 19:34:25 32° WSW 19:34:25 32° WSW visible
